Location: Harwich
(41.7160°N, 69.9939°W)
Time: 16:05:44
(UTC+01:00)

Vanguard 2 - Visible Passes

Search period start: 29 January 2023 00:00
Search period end: 08 February 2023 00:00
Orbit: 554 x 2930 km, 32.9° (Epoch: 28 January)

Date Brightness Start Highest point End Pass type
(mag) Time Alt. Az. Time Alt. Az. Time Alt. Az.
29 Jan 11.3 02:24:07 10° S 02:26:34 15° S 02:26:34 15° S visible
29 Jan 11.3 07:07:57 22° ESE 07:07:57 22° ESE 07:11:32 10° E visible
29 Jan 10.1 09:09:16 54° S 09:09:16 54° S 09:20:30 10° SE visible
29 Jan 10.5 11:10:35 21° WSW 11:17:28 30° SW 11:26:35 10° SSE visible
30 Jan 11.2 02:39:11 10° SSW 02:42:38 18° S 02:42:38 18° S visible
30 Jan 11.1 07:23:45 26° ESE 07:23:45 26° ESE 07:28:23 10° ESE visible
30 Jan 10.2 09:25:04 50° SSW 09:25:04 50° SSW 09:36:58 10° SE visible
30 Jan 10.7 11:26:23 16° WSW 11:33:40 23° SW 11:42:00 10° S visible
31 Jan 11.2 00:55:56 10° SE 00:57:22 11° SE 00:57:22 11° SE visible
31 Jan 11.1 02:54:46 10° SSW 02:58:43 21° S 02:58:43 21° S visible
31 Jan11.905:38:15E05:38:15E05:00:03WSWvisible
31 Jan 11.0 07:39:35 30° ESE 07:39:35 30° ESE 07:45:10 10° ESE visible
31 Jan 10.3 09:40:54 44° SSW 09:41:12 44° SSW 09:53:15 10° SE visible
31 Jan 10.9 11:42:14 11° W 11:49:47 18° SW 11:56:46 10° SSW visible
01 Feb 11.0 01:07:42 10° SSE 01:13:27 16° SE 01:13:27 16° SE visible
01 Feb 11.0 03:10:41 10° SW 03:14:48 23° SSW 03:14:48 23° SSW visible
01 Feb12.005:54:08E05:54:08E05:16:08WSWvisible
01 Feb 10.9 07:55:28 33° SE 07:55:28 33° SE 08:01:51 10° ESE visible
01 Feb 10.4 09:56:47 38° SW 09:57:40 38° SSW 10:09:18 10° SSE visible
01 Feb 11.2 12:01:16 10° WSW 12:05:49 12° SW 12:09:55 10° SSW visible
02 Feb 10.8 01:22:04 10° S 01:29:32 22° SE 01:29:32 22° SE visible
02 Feb 11.0 03:26:51 10° SW 03:30:54 24° SSW 03:30:54 24° SSW visible
02 Feb11.906:10:03E06:10:03E05:32:14WSWvisible
02 Feb 10.8 08:11:23 35° SE 08:11:23 35° SE 08:18:25 10° SE visible
02 Feb 10.6 10:12:42 31° SW 10:14:00 31° SW 10:25:03 10° SSE visible
03 Feb 10.6 01:37:14 10° SSW 01:45:38 28° SSE 01:45:38 28° SSE visible
03 Feb 11.0 03:43:12 10° SW 03:46:58 24° SW 03:46:58 24° SW visible
03 Feb 10.8 08:27:20 35° SSE 08:27:20 35° SSE 08:34:50 10° SE visible
03 Feb 10.8 10:28:41 25° SW 10:30:14 25° SW 10:40:23 10° S visible
04 Feb 10.4 01:52:53 10° SSW 02:01:42 34° SSE 02:01:42 34° SSE visible
04 Feb 11.1 03:59:43 10° WSW 04:03:02 22° SW 04:03:02 22° SW visible
04 Feb 11.7 06:42:00 11° ESE 06:42:00 11° ESE 06:42:13 10° ESE visible
04 Feb 10.8 08:43:20 34° SSE 08:43:20 34° SSE 08:51:02 10° SE visible
04 Feb 11.0 10:44:41 19° SW 10:46:23 19° SW 10:55:03 10° S visible
05 Feb 10.9 00:06:30 10° SSE 00:11:40 14° SE 00:16:24 12° ESE visible
05 Feb 10.3 02:08:51 10° SW 02:17:44 39° SSE 02:17:44 39° SSE visible
05 Feb 11.2 04:16:21 10° WSW 04:19:04 20° WSW 04:19:04 20° WSW visible
05 Feb 11.7 06:58:01 12° ESE 06:58:01 12° ESE 06:58:53 10° ESE visible
05 Feb 10.9 08:59:22 31° S 08:59:22 31° S 09:07:00 10° SSE visible
05 Feb 11.2 11:00:42 13° WSW 11:02:28 13° SW 11:08:23 10° SSW visible
06 Feb 10.6 00:20:45 10° S 00:27:43 20° SE 00:32:24 16° ESE visible
06 Feb 10.2 02:25:02 10° SW 02:33:44 44° S 02:33:44 44° S visible
06 Feb 11.3 04:33:03 10° WSW 04:35:04 17° WSW 04:35:04 17° WSW visible
06 Feb 11.6 07:14:05 14° SE 07:14:05 14° SE 07:15:25 10° SE visible
06 Feb 11.0 09:15:26 26° S 09:15:26 26° S 09:22:38 10° SSE visible
07 Feb 10.4 00:35:58 10° S 00:43:51 26° SE 00:48:22 22° ESE visible
07 Feb 10.1 02:41:25 10° SW 02:49:42 46° SSW 02:49:42 46° SSW visible
07 Feb 11.4 04:49:51 10° WSW 04:51:02 14° WSW 04:51:02 14° WSW visible
07 Feb 11.6 07:30:09 14° SE 07:30:09 14° SE 07:31:46 10° SE visible
07 Feb 11.1 09:31:29 22° SSW 09:31:29 22° SSW 09:37:49 10° S visible
